| time (UTC) | temp F | wind direction | speed MPH | gust MPH | rain 1hr in | rain 24hr in | rain mn in | humidity % | barometer mb |
| 20260503210039 | 49 | 109 | 0.0 | 0.0 | 0.00 | 0.00 | 0.00 | 96 | 1007.2 |
| 20260503204638 | 49 | 123 | 0.0 | 0.0 | 0.00 | 0.00 | 0.00 | 95 | 1007.3 |
| 20260503203036 | 49 | 140 | 0.0 | 0.0 | 0.00 | 0.00 | 0.00 | 95 | 1007.4 |
| 20260503201541 | 49 | 140 | 0.0 | 0.0 | 0.00 | 0.00 | 0.00 | 95 | 1007.6 |
| 20260503200043 | 49 | 140 | 0.0 | 0.0 | 0.00 | 0.00 | 0.00 | 95 | 1007.7 |
| 20260503194639 | 50 | 140 | 0.0 | 0.0 | 0.00 | 0.00 | 0.00 | 95 | 1007.8 |
| 20260503193043 | 50 | 140 | 0.0 | 0.0 | 0.00 | 0.00 | 0.00 | 95 | 1008.0 |
| 20260503191537 | 50 | 140 | 0.0 | 0.0 | 0.00 | 0.00 | 0.00 | 94 | 1008.0 |
| 20260503190037 | 50 | 88 | 0.0 | 0.0 | 0.00 | 0.00 | 0.00 | 94 | 1007.9 |
| 20260503184549 | 50 | 88 | 0.0 | 0.0 | 0.00 | 0.00 | 0.00 | 94 | 1007.8 |
| 20260503183051 | 50 | 88 | 0.0 | 0.0 | 0.00 | 0.00 | 0.00 | 94 | 1007.8 |
| 20260503181635 | 50 | 86 | 0.0 | 3.0 | 0.00 | 0.00 | 0.00 | 94 | 1007.8 |
| 20260503180036 | 50 | 22 | 0.0 | 0.0 | 0.00 | 0.00 | 0.00 | 94 | 1007.7 |
| 20260503174538 | 50 | 22 | 0.0 | 0.0 | 0.00 | 0.00 | 0.00 | 94 | 1007.7 |
| 20260503173035 | 50 | 22 | 0.0 | 0.0 | 0.00 | 0.00 | 0.00 | 94 | 1007.7 |
| 20260503171536 | 50 | 22 | 0.0 | 3.0 | 0.00 | 0.00 | 0.00 | 94 | 1007.8 |
| 20260503090135 | 51 | 312 | 3.0 | 7.0 | 0.00 | 0.00 | 0.00 | 91 | 1008.4 |
| 20260503081604 | 50 | 285 | 3.0 | 5.0 | 0.00 | 0.00 | 0.00 | 91 | 1008.3 |
| 20260503071538 | 50 | 348 | 5.0 | 7.0 | 0.00 | 0.00 | 0.00 | 90 | 1007.9 |
| 20260503070134 | 50 | 320 | 5.0 | 7.0 | 0.00 | 0.00 | 0.00 | 89 | 1007.9 |
| 20260503054544 | 51 | 336 | 1.0 | 4.0 | 0.00 | 0.00 | 0.00 | 85 | 1007.6 |
| 20260503053040 | 51 | 350 | 0.0 | 2.0 | 0.00 | 0.00 | 0.00 | 85 | 1007.7 |
| 20260503051634 | 51 | 317 | 1.0 | 3.0 | 0.00 | 0.00 | 0.00 | 85 | 1007.6 |
| 20260503050039 | 50 | 290 | 1.0 | 3.0 | 0.00 | 0.00 | 0.00 | 85 | 1007.6 |
| 20260503044542 | 50 | 265 | 1.0 | 4.0 | 0.00 | 0.00 | 0.00 | 85 | 1007.6 |
| 20260503043035 | 50 | 304 | 1.0 | 3.0 | 0.00 | 0.00 | 0.00 | 84 | 1007.7 |
| 20260503041542 | 50 | 315 | 1.0 | 2.0 | 0.00 | 0.00 | 0.00 | 83 | 1007.7 |
| 20260503040045 | 50 | 315 | 1.0 | 3.0 | 0.00 | 0.00 | 0.00 | 82 | 1007.6 |
| 20260503034546 | 51 | 277 | 0.0 | 0.0 | 0.00 | 0.00 | 0.00 | 80 | 1007.6 |
| 20260503033038 | 51 | 277 | 0.0 | 0.0 | 0.00 | 0.00 | 0.00 | 80 | 1007.4 |
| 20260503031551 | 51 | 277 | 0.0 | 0.0 | 0.00 | 0.00 | 0.00 | 80 | 1007.4 |
| 20260503030034 | 51 | 277 | 0.0 | 0.0 | 0.00 | 0.00 | 0.00 | 80 | 1007.6 |
| 20260503024536 | 51 | 277 | 0.0 | 0.0 | 0.00 | 0.00 | 0.00 | 78 | 1007.6 |
| 20260503023035 | 50 | 255 | 0.0 | 0.0 | 0.00 | 0.00 | 0.00 | 79 | 1007.5 |
| 20260503021538 | 50 | 253 | 0.0 | 0.0 | 0.00 | 0.00 | 0.00 | 81 | 1007.5 |
| 20260503020035 | 50 | 253 | 0.0 | 0.0 | 0.00 | 0.00 | 0.00 | 82 | 1007.5 |
| 20260503014542 | 51 | 315 | 0.0 | 0.0 | 0.00 | 0.00 | 0.00 | 81 | 1007.6 |
| 20260503013137 | 50 | 315 | 0.0 | 0.0 | 0.00 | 0.00 | 0.00 | 80 | 1007.5 |
| 20260503011542 | 51 | 315 | 0.0 | 0.0 | 0.00 | 0.00 | 0.00 | 79 | 1007.6 |
| 20260503010041 | 51 | 315 | 0.0 | 3.0 | 0.00 | 0.00 | 0.00 | 78 | 1007.5 |
| 20260503004634 | 51 | 318 | 2.0 | 5.0 | 0.00 | 0.00 | 0.00 | 76 | 1007.6 |
| 20260503003034 | 52 | 340 | 2.0 | 5.0 | 0.00 | 0.00 | 0.00 | 77 | 1007.7 |
| 20260503001539 | 52 | 360 | 3.0 | 5.0 | 0.00 | 0.00 | 0.00 | 77 | 1007.7 |
| 20260503000042 | 52 | 348 | 2.0 | 3.0 | 0.00 | 0.00 | 0.00 | 76 | 1007.9 |
| 20260502234634 | 53 | 330 | 1.0 | 3.0 | 0.00 | 0.00 | 0.00 | 75 | 1008.0 |
| 20260502233053 | 53 | 138 | 0.0 | 0.0 | 0.00 | 0.00 | 0.00 | 74 | 1007.9 |
| 20260502231553 | 53 | 138 | 0.0 | 2.0 | 0.00 | 0.00 | 0.00 | 73 | 1008.0 |
| 20260502230040 | 53 | 83 | 0.0 | 3.0 | 0.00 | 0.00 | 0.00 | 71 | 1008.0 |
| 20260502224538 | 54 | 84 | 0.0 | 3.0 | 0.00 | 0.00 | 0.00 | 71 | 1008.3 |
| 20260502223039 | 54 | 277 | 0.0 | 0.0 | 0.00 | 0.00 | 0.00 | 69 | 1008.4 |
| 20260502221539 | 55 | 277 | 2.0 | 8.0 | 0.00 | 0.00 | 0.00 | 68 | 1008.3 |
| 20260502220043 | 56 | 293 | 7.0 | 11.0 | 0.00 | 0.00 | 0.00 | 65 | 1008.3 |
| 20260502214535 | 58 | 257 | 11.0 | 19.0 | 0.00 | 0.00 | 0.00 | 61 | 1008.7 |
| 20260502213134 | 58 | 276 | 12.0 | 16.0 | 0.00 | 0.00 | 0.00 | 65 | 1008.5 |
| 20260502211544 | 59 | 284 | 5.0 | 9.0 | 0.00 | 0.00 | 0.00 | 65 | 1008.4 |